Regional Weather Roundup
Issued by NWS

Home | Current Version | Previous Version | Text Only | Print | Product List | Glossary Off
Versions: 1 2 3 4 5 6 7 8 9 10 11 12 13 14 15 16 17 18 19 20 21 22 23 24 25 26 27 28 29 30 31 32 33 34 35 36 37 38 39 40 41 42 43 44 45 46 47 48 49 50

000
ASUS43 KDMX 190701
RWRIA

WEATHER ROUNDUP FOR IOWA
NATIONAL WEATHER SERVICE DES MOINES IA
200 AM CDT THU APR 19 2018

NOTE: "FAIR" INDICATES FEW OR NO CLOUDS BELOW 12,000 FEET WITH NO
SIGNIFICANT WEATHER AND/OR OBSTRUCTIONS TO VISIBILITY.

* - THESE STATIONS ARE NOT NWS STATIONS...THUS NOT UNDER NWS
QUALITY CONTROL.  THEY ALSO DO NOT REPORT WEATHER SUCH
AS PRECIPITATION OR FOG.

IAZ001>003-012>014-020>022-031>034-043>046-190800-
   NORTHWEST IOWA

CITY           SKY/WX    TMP DP  RH WIND       PRES   REMARKS
CARROLL *      CLOUDY    34  30  86 NW10      30.25S WCI  26
CHEROKEE *     PTCLDY    32  31  95 N5        30.27R WCI  27
DENISON *      PTCLDY    30  28  93 N6        30.29R WCI  24
LE MARS *      CLEAR     32  30  93 CALM      30.29R
ORANGE CITY *  CLEAR     34  30  86 N8        30.27S WCI  27
SHELDON *      CLEAR     28  28 100 N9        30.26R WCI  20
SIOUX CITY     PTCLDY    33  30  88 NW6       30.30R WCI  28
SPENCER        PTCLDY    30  26  85 NW13      30.26R WCI  20
STORM LAKE *   PTCLDY    30  28  93 NW10      30.25S WCI  21
$$

IAZ055>058-069>071-079>083-090>094-190800-
   SOUTHWEST IOWA

CITY           SKY/WX    TMP DP  RH WIND       PRES   REMARKS
ATLANTIC *     PTCLDY    30  30 100 NW9       30.26S WCI  22
AUDUBON *      CLEAR     30  27  86 NW8       30.26R WCI  23
CLARINDA *     CLEAR     30  28  93 N8        30.29R WCI  23
COUNCIL BLFS * PTCLDY    32  32 100 N9        30.28R WCI  24
CRESTON *      PTCLDY    28  27  93 NW9       30.24S WCI  20
HARLAN  *      CLEAR     30  30 100 NW9       30.30S WCI  22
LAMONI         MOCLDY    32  26  78 N13G22    30.22R WCI  22
RED OAK *      CLEAR     32  30  93 N10       30.27R WCI  24
SHENANDOAH *   CLEAR     32  28  86 N6        30.29R WCI  26
$$

IAZ047>049-059>061-072>074-084-190800-
   CENTRAL IOWA

CITY           SKY/WX    TMP DP  RH WIND       PRES   REMARKS
AMES           CLOUDY    33  29  85 NW12      30.23R WCI  24
ANKENY *       MOCLDY    32  30  93 NW12      30.24R WCI  23
BOONE *        CLOUDY    34  30  86 NW13      30.23R WCI  25
CHARITON *     CLOUDY    32  28  86 NW12      30.21R WCI  23
DES MOINES     PTCLDY    31  27  85 NW7       30.24R WCI  24
KNOXVILLE *    CLOUDY    32  28  86 NW13      30.19S WCI  22
MARSHALLTOWN   CLOUDY    33  31  92 NW15      30.20R WCI  23
NEWTON *       CLOUDY    32  30  93 NW13G21   30.21R WCI  22
PELLA *        CLOUDY    32  29  90 NW12      30.22S WCI  23
$$

IAZ004>006-015-016-023>025-035-036-190800-
   NORTH CENTRAL IOWA

CITY           SKY/WX    TMP DP  RH WIND       PRES   REMARKS
ALGONA *       CLOUDY    28  25  86 NW10      30.24R WCI  19
CLARION *      CLOUDY    32  28  86 NW13      30.23R WCI  22
ESTHERVILLE    CLOUDY    28  22  78 NW12      30.25R WCI  18
FORT DODGE *   CLOUDY    33  29  85 VRB6      30.24R WCI  28
MASON CITY     CLOUDY    27  24  89 NW13      30.24R WCI  16
FOREST CITY *  FAIR      28  28 100 N8        30.24R WCI  20
WEBSTER CITY * CLOUDY    32  30  93 NW8       30.22R WCI  25
IOWA FALLS *   CLOUDY    33  31  92 NW13      30.22R WCI  24
$$

IAZ007>011-017>019-026>030-037>042-050>054-066-190800-
   NORTHEAST IOWA

CITY           SKY/WX    TMP DP  RH WIND       PRES   REMARKS
CEDAR RAPIDS   CLOUDY    32  30  92 NW13      30.16R WCI  22
CHARLES CITY * FAIR      28  28 100 N12       30.21R WCI  18
CLINTON *      CLOUDY    32  30  92 NW13      30.13R WCI  22
DECORAH *      FAIR      30  28  93 N8        30.17R WCI  23
DUBUQUE        CLOUDY    31  29  92 N13       30.13R WCI  21
MONTICELLO *   CLOUDY    32  32 100 NW9       30.15R WCI  24
OELWEIN *      FAIR      27  27 100 NW12      30.18R WCI  16
WATERLOO       MOCLDY    31  29  92 NW15      30.19R WCI  20
$$

IAZ064-065-067-068-078-190800-
   EAST CENTRAL IOWA

CITY           SKY/WX    TMP DP  RH WIND       PRES   REMARKS
DAVENPORT      CLOUDY    31  29  92 NW13      30.14R WCI  21
IOWA CITY      CLOUDY    33  29  85 NW10      30.18R WCI  25
MT. PLEASANT * CLOUDY    32  28  86 NW10      30.17R WCI  24
MUSCATINE *    CLOUDY    34  30  86 NW10G17   30.16R WCI  26
QUAD CITIES    CLOUDY    34  31  88 NW10      30.13R WCI  26
$$

IAZ062-063-075>077-085>089-095>099-190800-
   SOUTHEAST IOWA

CITY           SKY/WX    TMP DP  RH WIND       PRES   REMARKS
BURLINGTON     CLOUDY    33  28  81 NW10G20   30.15R WCI  25
FAIRFIELD *    CLOUDY    32  28  86 NW12      30.18R WCI  23
FORT MADISON * CLOUDY    34  28  80 NW14      30.17R WCI  24
KEOKUK *       CLOUDY    34  28  80 NW10G18   30.17R WCI  26
OSKALOOSA *    MOCLDY    30  28  94 NW10      30.20R WCI  21
CENTERVILLE *    N/A     32  32 100 NW9       30.21R WCI  24
OTTUMWA        PTCLDY    30  27  88 NW10      30.18S WCI  21
WASHINGTON *   CLOUDY    32  32 100 NW13      30.18R WCI  22
$$

ABBREVIATIONS USED IN REMARKS
   TC - TEMPERATURES IN CELSIUS
  WCI - WIND CHILL INDEX
   HX - HEAT INDEX
  VSB - VISIBILITY
$$





USA.gov is the U.S. government's official web portal to all federal, state and local government web resources and services.